• Em Portugal
  • Lista de países
  • Para 7 dias
  • Temperatura da água
  • Mapas de satélite
  • Mapa do tempo
  • Widgets de tempo
  • user-avatar
    Iniciar Sessão

    Previsão horária em Bakhtaran

    Hoje, 15 Novembro, Quinta-feira

    Tempo Temperatura Precipitação Vento Pressão Humidade
    00:00 +10°C° 0.1 mm 2 m/s 635 mmHg 49%
    01:00 +9°C° 0 mm 2 m/s 635 mmHg 51%
    02:00 +9°C° 0 mm 2 m/s 635 mmHg 53%
    03:00 +9°C° 0 mm 2 m/s 634 mmHg 57%
    04:00 +9°C° 0 mm 2 m/s 635 mmHg 59%
    05:00 +8°C° 0 mm 2 m/s 635 mmHg 62%
    06:00 +9°C° 0 mm 1 m/s 635 mmHg 65%
    07:00 +9°C° 0 mm 2 m/s 635 mmHg 65%
    08:00 +10°C° 0 mm 2 m/s 636 mmHg 65%
    09:00 +12°C° 0 mm 2 m/s 636 mmHg 65%
    10:00 +12°C° 0 mm 3 m/s 636 mmHg 61%
    11:00 +13°C° 0 mm 3 m/s 637 mmHg 57%
    12:00 +14°C° 0 mm 3 m/s 637 mmHg 54%
    13:00 +14°C° 0.1 mm 4 m/s 637 mmHg 53%
    14:00 +14°C° 0.1 mm 4 m/s 637 mmHg 52%
    15:00 +15°C° 0.1 mm 4 m/s 636 mmHg 50%
    16:00 +14°C° 0.2 mm 3 m/s 636 mmHg 56%
    17:00 +13°C° 0.2 mm 3 m/s 636 mmHg 61%
    18:00 +13°C° 0.2 mm 2 m/s 636 mmHg 66%
    19:00 +13°C° 0 mm 2 m/s 636 mmHg 68%
    20:00 +12°C° 0 mm 2 m/s 636 mmHg 71%
    21:00 +12°C° 0 mm 2 m/s 636 mmHg 74%
    22:00 +12°C° 0.3 mm 2 m/s 636 mmHg 76%
    23:00 +12°C° 0.3 mm 2 m/s 636 mmHg 78%

    Amanhã, 16 Novembro, Sexta-feira

    Tempo Temperatura Precipitação Vento Pressão Humidade
    00:00 +10°C° 0.3 mm 2 m/s 636 mmHg 80%
    01:00 +10°C° 0.5 mm 2 m/s 636 mmHg 82%
    02:00 +10°C° 0.5 mm 2 m/s 636 mmHg 84%
    03:00 +10°C° 0.5 mm 2 m/s 636 mmHg 86%
    04:00 +10°C° 0.6 mm 2 m/s 636 mmHg 87%
    05:00 +10°C° 0.6 mm 2 m/s 636 mmHg 88%
    06:00 +9°C° 0.6 mm 2 m/s 636 mmHg 89%
    07:00 +10°C° 0.5 mm 2 m/s 637 mmHg 84%
    08:00 +12°C° 0.5 mm 1 m/s 637 mmHg 79%
    09:00 +12°C° 0.5 mm 1 m/s 638 mmHg 74%
    10:00 +13°C° 0.4 mm 2 m/s 638 mmHg 68%
    11:00 +14°C° 0.4 mm 2 m/s 638 mmHg 62%
    12:00 +14°C° 0.4 mm 2 m/s 639 mmHg 56%
    13:00 +15°C° 0 mm 2 m/s 639 mmHg 53%
    14:00 +15°C° 0 mm 2 m/s 639 mmHg 49%
    15:00 +16°C° 0 mm 2 m/s 639 mmHg 46%
    16:00 +15°C° 0 mm 2 m/s 639 mmHg 51%
    17:00 +14°C° 0 mm 2 m/s 639 mmHg 56%
    18:00 +13°C° 0 mm 2 m/s 639 mmHg 60%
    19:00 +12°C° 0 mm 1 m/s 639 mmHg 64%
    20:00 +12°C° 0 mm 1 m/s 640 mmHg 68%
    21:00 +11°C° 0 mm 1 m/s 640 mmHg 72%
    22:00 +11°C° 0 mm 1 m/s 640 mmHg 74%
    23:00 +11°C° 0 mm 1 m/s 640 mmHg 77%

    Depois de amanhã, 17 Novembro, Sábado

    Tempo Temperatura Precipitação Vento Pressão Humidade
    00:00 +10°C° 0 mm 1 m/s 640 mmHg 79%
    01:00 +10°C° 0 mm 1 m/s 639 mmHg 81%
    02:00 +9°C° 0 mm 1 m/s 639 mmHg 84%
    03:00 +9°C° 0 mm 1 m/s 639 mmHg 86%
    04:00 +8°C° 0 mm 0 m/s 639 mmHg 88%
    05:00 +7°C° 0 mm 0 m/s 639 mmHg 89%
    06:00 +7°C° 0 mm 0 m/s 639 mmHg 90%
    07:00 +8°C° 0 mm 0 m/s 639 mmHg 84%
    08:00 +9°C° 0 mm 0 m/s 640 mmHg 78%
    09:00 +11°C° 0 mm 0 m/s 641 mmHg 72%
    10:00 +13°C° 0 mm 1 m/s 641 mmHg 62%
    11:00 +14°C° 0 mm 1 m/s 641 mmHg 53%
    12:00 +15°C° 0 mm 1 m/s 641 mmHg 43%
    13:00 +15°C° 0 mm 1 m/s 641 mmHg 40%
    14:00 +15°C° 0 mm 1 m/s 640 mmHg 37%
    15:00 +16°C° 0 mm 1 m/s 640 mmHg 34%
    16:00 +15°C° 0 mm 1 m/s 640 mmHg 38%
    17:00 +14°C° 0 mm 1 m/s 640 mmHg 42%
    18:00 +13°C° 0 mm 1 m/s 639 mmHg 46%
    19:00 +12°C° 0 mm 1 m/s 639 mmHg 48%
    20:00 +12°C° 0 mm 1 m/s 639 mmHg 50%
    21:00 +11°C° 0 mm 1 m/s 639 mmHg 52%
    22:00 +11°C° 0 mm 1 m/s 639 mmHg 54%
    23:00 +10°C° 0 mm 1 m/s 639 mmHg 56%

    18 Novembro, Domingo

    Tempo Temperatura Precipitação Vento Pressão Humidade
    00:00 +10°C° 0 mm 1 m/s 638 mmHg 58%
    01:00 +10°C° 0 mm 1 m/s 638 mmHg 59%
    02:00 +9°C° 0 mm 1 m/s 638 mmHg 61%
    03:00 +9°C° 0 mm 1 m/s 637 mmHg 62%
    04:00 +8°C° 0 mm 1 m/s 637 mmHg 63%
    05:00 +8°C° 0 mm 1 m/s 637 mmHg 65%
    06:00 +8°C° 0 mm 1 m/s 637 mmHg 66%
    07:00 +8°C° 0 mm 0 m/s 638 mmHg 60%
    08:00 +9°C° 0 mm 0 m/s 638 mmHg 54%
    09:00 +11°C° 0 mm 0 m/s 639 mmHg 48%
    10:00 +13°C° 0 mm 1 m/s 639 mmHg 42%
    11:00 +14°C° 0 mm 1 m/s 639 mmHg 37%
    12:00 +15°C° 0 mm 1 m/s 639 mmHg 31%
    13:00 +15°C° 0 mm 1 m/s 639 mmHg 29%
    14:00 +16°C° 0 mm 2 m/s 639 mmHg 27%
    15:00 +16°C° 0 mm 2 m/s 639 mmHg 25%
    16:00 +15°C° 0 mm 1 m/s 638 mmHg 29%
    17:00 +14°C° 0 mm 1 m/s 638 mmHg 33%
    18:00 +12°C° 0 mm 1 m/s 638 mmHg 37%
    19:00 +12°C° 0 mm 1 m/s 638 mmHg 40%
    20:00 +11°C° 0 mm 1 m/s 638 mmHg 42%
    21:00 +11°C° 0 mm 1 m/s 638 mmHg 45%
    22:00 +10°C° 0 mm 1 m/s 637 mmHg 47%
    23:00 +10°C° 0 mm 1 m/s 637 mmHg 49%

    19 Novembro, Segunda-feira

    Tempo Temperatura Precipitação Vento Pressão Humidade
    00:00 +8°C° 0 mm 0 m/s 637 mmHg 52%
    01:00 +8°C° 0 mm 0 m/s 637 mmHg 53%
    02:00 +7°C° 0 mm 0 m/s 636 mmHg 53%
    03:00 +7°C° 0 mm 0 m/s 636 mmHg 54%
    04:00 +7°C° 0 mm 0 m/s 636 mmHg 55%
    05:00 +7°C° 0 mm 0 m/s 636 mmHg 55%
    06:00 +6°C° 0 mm 0 m/s 636 mmHg 55%
    07:00 +8°C° 0 mm 0 m/s 637 mmHg 49%
    08:00 +10°C° 0 mm 1 m/s 638 mmHg 43%
    09:00 +12°C° 0 mm 1 m/s 639 mmHg 37%
    10:00 +13°C° 0 mm 1 m/s 639 mmHg 33%
    11:00 +14°C° 0 mm 1 m/s 639 mmHg 29%
    12:00 +15°C° 0 mm 1 m/s 639 mmHg 24%
    13:00 +15°C° 0 mm 1 m/s 639 mmHg 24%
    14:00 +16°C° 0 mm 1 m/s 639 mmHg 23%
    15:00 +16°C° 0 mm 1 m/s 639 mmHg 22%
    16:00 +14°C° 0 mm 0 m/s 639 mmHg 26%
    17:00 +13°C° 0 mm 0 m/s 638 mmHg 29%
    18:00 +12°C° 0 mm 0 m/s 638 mmHg 33%
    19:00 +11°C° 0 mm 0 m/s 638 mmHg 34%
    20:00 +11°C° 0 mm 0 m/s 638 mmHg 35%
    21:00 +10°C° 0 mm 0 m/s 638 mmHg 35%
    22:00 +10°C° 0 mm 0 m/s 638 mmHg 36%
    23:00 +10°C° 0 mm 0 m/s 637 mmHg 36%

    20 Novembro, Terça-feira

    Tempo Temperatura Precipitação Vento Pressão Humidade
    00:00 +9°C° 0 mm 0 m/s 637 mmHg 37%
    01:00 +9°C° 0 mm 0 m/s 637 mmHg 37%
    02:00 +9°C° 0 mm 0 m/s 637 mmHg 38%
    03:00 +9°C° 0 mm 0 m/s 636 mmHg 38%
    04:00 +9°C° 0 mm 0 m/s 637 mmHg 38%
    05:00 +8°C° 0 mm 0 m/s 637 mmHg 38%
    06:00 +8°C° 0 mm 0 m/s 637 mmHg 39%
    07:00 +10°C° 0 mm 0 m/s 637 mmHg 35%
    08:00 +11°C° 0 mm 0 m/s 638 mmHg 32%
    09:00 +12°C° 0 mm 0 m/s 639 mmHg 28%
    10:00 +14°C° 0 mm 1 m/s 639 mmHg 27%
    11:00 +15°C° 0 mm 1 m/s 639 mmHg 25%
    12:00 +16°C° 0 mm 1 m/s 639 mmHg 24%
    13:00 +16°C° 0 mm 1 m/s 639 mmHg 23%
    14:00 +16°C° 0 mm 1 m/s 638 mmHg 23%
    15:00 +16°C° 0 mm 1 m/s 638 mmHg 23%
    16:00 +15°C° 0 mm 1 m/s 638 mmHg 26%
    17:00 +14°C° 0 mm 1 m/s 638 mmHg 30%
    18:00 +13°C° 0 mm 1 m/s 638 mmHg 33%
    19:00 +12°C° 0 mm 1 m/s 638 mmHg 35%
    20:00 +11°C° 0 mm 1 m/s 638 mmHg 37%
    21:00 +11°C° 0 mm 1 m/s 638 mmHg 38%
    22:00 +10°C° 0 mm 1 m/s 638 mmHg 40%
    23:00 +10°C° 0 mm 1 m/s 637 mmHg 42%
    Mostrar mais